C/2019 K4 ( Ye )

Japanese version
Home page
Updated on August 6, 2019

---------------------------------------------------------------------

* Profile

Discovery Date May 30, 2019
Magnitude 17.1 mag
Discoverer Quan-zhi Ye (Palomar)

* Pictures

* Orbital Elements

Epoch 2019 June 6.0 TT = JDT 2458640.5                                          
T 2019 June 16.42168 TT                                 MPCLINUX                
q   2.2593631            (2000.0)            P               Q                  
z  +0.0004378      Peri.  139.77261     +0.76299825     +0.64639471             
 +/-0.0000364      Node   180.16336     -0.08936391     +0.10969583             
e   0.9990108      Incl.  105.30674     +0.64019354     -0.75507663             
From 114 observations 2019 Apr. 24-July 24, mean residual 0".5.                 

* Finding Charts

* Magnitudes Graph

        m1 = 12.0 + 5 log d + 10.0 log r

---------------------------------------------------------------------

The orbital elements are published on M.P.E.C. 2019-O99.
The charts are made with StellaNavigator Ver.10 (AstroArts).
The magnitudes graphs are made with Comet for Windows.

---------------------------------------------------------------------

Copyright(C) Seiichi Yoshida (comet@aerith.net). All rights reserved.